Aérodrome :
LOGIN :

S'inscrire | Disclaimer

   EN    FR    IT 

 










Légende :    VFR   VFR Marginal   IFR   IFR Intensif   IFR Très Intensif
Visi : 
Plafond : 
>= 8 km
>= 3000ft
5 à 8 km
1000 à 3000 ft
1500m à 5 km
500 à 1000 ft
800 à 1500m
200 à 500 ft
< 800m
< 200 ft
Symboles :   Orages  Brouillard  Fortes neiges  Fortes précipitations  Vent > 20 kt
SIGMETs :   Divers  Orages  Givrage  Turbulence  Onde Orograph.  Cendres Volcan.







- Altitude de l'aérodrome : 40 ft
- Code IATA : RMI


LIPR - Federico Fellini Int. Rimini

DERNIER METAR :
  • 172215Z 27006KT 3000 BR SCT010 BKN030 07/05 Q1017

METARs EXPIRÉS :
  • 172145Z 27005KT 2900 BR SCT020 SCT040 07/06 Q1017
  • 172115Z 28007KT 2900 BR SCT030 SCT050 07/06 Q1017
  • 172045Z 26004KT 2900 BR SCT030 SCT050 07/06 Q1017
  • 172015Z 26004KT 2800 BR SCT030 SCT050 07/06 Q1017
  • 171945Z 25004KT 2500 BR SCT025 SCT045 07/07 Q1018

TAF TAF LIPR
Valide du 17 à 21h jusqu'au 18 à 06h UTC


172000Z 1721/1806 29005KT 2500 RA BR SCT020 SCT040
Pas de NOTAMs connus pour ce terrain.



MET'MAP, la Météo Aéronautique d'un coup d'oeil ! - Copyright ORBIFLY Décembre 2007 - Disclaimer

ORBIFLY MET'MAP TEAM :

Programmation & Développement : Alexandra Zaïnal
Conception & Développement : Baudouin d'Aumeries
Co-Programmation & Développement : Marc-Olivier Méhu
Soutien technique & logistique : Manuel Goepfert

Contact : metmap@orbifly.com




SOURCES & CREDITS :

   NOAA